Terug naar catalogus

KUIPER-00057

ActiefCommunicatieLEO
NORAD 64517·PAYLOAD·🇺🇸 United States

Gelanceerd Jun 23, 2025 vanaf Cape Canaveral Space Force Station

Loading…

Volgende Passages (komende 24 uur)

TLE

VersSource: CelesTrak SupGP

Epoch: Sep 14, 2026, 16:59 UTC

1 64517C 25134T   26257.70804398 -.00003963  00000+0 -51884-3 0  2577
2 64517  51.8976 114.7311 0000822 103.3491  31.5432 14.79933357    12

Volg KUIPER-00057 in realtime met AllMySat

Download on the App Store